VIR6W MDPC-EGCC

Flight info

Callsign VIR6W
Flight time N/A
Altitude 35000
Route CHUMA2W CHUMA Y315 KEEKA/M085F350 DCT SIFEN/M085F370 DCT 34N055W 38N050W 45N040W/M085F390 49N030W 52N020W DCT MALOT/N0484F390 DCT GISTI DCT ERABI DCT DAP DCT BOFUM Q37 MALUD
Aircraft A35K/H-SDE2E3GHIJ3J4J5LM1ORWXY/LB1D1

Departure

Time N/A
Airport Punta Cana International Airport (MDPC)

Arrival

Time 2026-05-06 20:25
Airport Manchester Airport (EGCC)
Time Latitude Longitude Altitude Speed Heading
2026-05-06 18:06 49.60442 -28.29681 38959 ft 515 kts 58°
2026-05-06 18:06 49.63772 -28.19903 38957 ft 515 kts 58°
2026-05-06 18:07 49.67090 -28.10119 38954 ft 515 kts 59°
2026-05-06 18:07 49.70382 -28.00377 38948 ft 514 kts 59°
2026-05-06 18:08 49.73682 -27.90573 38945 ft 514 kts 59°
2026-05-06 18:08 49.76973 -27.80758 38940 ft 514 kts 59°
2026-05-06 18:09 49.80257 -27.70929 38944 ft 514 kts 59°
2026-05-06 18:09 49.83538 -27.61066 38938 ft 514 kts 59°
2026-05-06 18:10 49.86802 -27.51211 38923 ft 514 kts 59°
2026-05-06 18:10 49.90057 -27.41347 38932 ft 514 kts 59°
2026-05-06 18:11 49.93306 -27.31466 38927 ft 514 kts 60°
2026-05-06 18:11 49.96541 -27.21589 38928 ft 513 kts 60°
2026-05-06 18:12 49.99770 -27.11692 38925 ft 513 kts 60°
2026-05-06 18:12 50.02987 -27.01791 38910 ft 513 kts 60°
2026-05-06 18:13 50.06198 -26.91870 38907 ft 513 kts 60°
2026-05-06 18:13 50.09371 -26.82030 38903 ft 512 kts 60°
2026-05-06 18:14 50.12558 -26.72102 38898 ft 512 kts 60°
2026-05-06 18:14 50.15757 -26.62101 38899 ft 512 kts 60°
2026-05-06 18:15 50.18925 -26.52157 38900 ft 512 kts 60°
2026-05-06 18:15 50.22065 -26.42261 38898 ft 512 kts 60°
2026-05-06 18:16 50.25217 -26.32286 38898 ft 512 kts 61°
2026-05-06 18:16 50.28357 -26.22309 38901 ft 512 kts 61°
2026-05-06 18:17 50.31491 -26.12309 38903 ft 513 kts 61°
2026-05-06 18:17 50.34625 -26.02273 38904 ft 513 kts 61°
2026-05-06 18:18 50.37751 -25.92218 38907 ft 514 kts 61°
2026-05-06 18:18 50.40870 -25.82146 38906 ft 514 kts 61°
2026-05-06 18:19 50.43985 -25.72043 38911 ft 515 kts 62°
2026-05-06 18:19 50.47097 -25.61910 38915 ft 516 kts 62°
2026-05-06 18:20 50.50203 -25.51756 38914 ft 516 kts 62°
2026-05-06 18:20 50.53300 -25.41590 38918 ft 516 kts 62°
2026-05-06 18:21 50.56393 -25.31395 38928 ft 517 kts 62°
2026-05-06 18:21 50.59479 -25.21182 38927 ft 517 kts 62°
2026-05-06 18:22 50.62555 -25.10955 38931 ft 517 kts 62°
2026-05-06 18:22 50.65623 -25.00711 38935 ft 517 kts 62°
2026-05-06 18:23 50.68684 -24.90443 38937 ft 518 kts 62°
2026-05-06 18:23 50.71742 -24.80147 38945 ft 518 kts 62°
2026-05-06 18:24 50.74775 -24.69889 38943 ft 518 kts 62°
2026-05-06 18:24 50.77815 -24.59566 38950 ft 518 kts 62°
2026-05-06 18:25 50.80842 -24.49237 38954 ft 518 kts 62°
2026-05-06 18:25 50.83857 -24.38900 38956 ft 518 kts 62°
2026-05-06 18:26 50.86868 -24.28541 38952 ft 518 kts 63°
2026-05-06 18:26 50.89871 -24.18169 38967 ft 518 kts 62°
2026-05-06 18:27 50.92863 -24.07785 38960 ft 517 kts 63°
2026-05-06 18:27 50.95840 -23.97405 38966 ft 517 kts 63°
2026-05-06 18:28 50.98808 -23.87008 38973 ft 517 kts 63°
2026-05-06 18:28 51.01766 -23.76605 38972 ft 517 kts 63°
2026-05-06 18:29 51.04709 -23.66207 38975 ft 515 kts 63°
2026-05-06 18:29 51.07641 -23.55805 38977 ft 515 kts 63°
2026-05-06 18:30 51.10546 -23.45454 38982 ft 515 kts 63°
2026-05-06 18:30 51.13460 -23.35024 38988 ft 515 kts 63°
2026-05-06 18:31 51.16356 -23.24616 38990 ft 514 kts 63°
2026-05-06 18:31 51.19244 -23.14185 38992 ft 513 kts 63°
2026-05-06 18:32 51.22117 -23.03762 38993 ft 513 kts 63°
2026-05-06 18:32 51.24981 -22.93326 38992 ft 513 kts 64°
2026-05-06 18:33 51.27354 -22.84643 38995 ft 512 kts 64°
2026-05-06 18:33 51.30194 -22.74210 38996 ft 512 kts 64°
2026-05-06 18:34 51.33026 -22.63759 38998 ft 512 kts 64°
2026-05-06 18:34 51.35850 -22.53287 38999 ft 512 kts 64°
2026-05-06 18:35 51.38663 -22.42813 38999 ft 512 kts 64°
2026-05-06 18:35 51.41465 -22.32329 39003 ft 512 kts 64°
2026-05-06 18:36 51.44260 -22.21826 39003 ft 512 kts 64°
2026-05-06 18:36 51.47045 -22.11313 39004 ft 512 kts 64°
2026-05-06 18:37 51.49816 -22.00802 39007 ft 512 kts 64°
2026-05-06 18:37 51.52578 -21.90275 39008 ft 512 kts 64°
2026-05-06 18:38 51.55314 -21.79803 39007 ft 512 kts 65°
2026-05-06 18:38 51.58058 -21.69250 39005 ft 511 kts 65°
2026-05-06 18:39 51.60788 -21.58705 39007 ft 510 kts 65°
2026-05-06 18:40 51.64858 -21.42882 39008 ft 510 kts 65°
2026-05-06 18:40 51.67563 -21.32310 39007 ft 510 kts 65°
2026-05-06 18:41 51.70254 -21.21739 39007 ft 510 kts 65°
2026-05-06 18:41 51.72937 -21.11152 39008 ft 509 kts 65°
2026-05-06 18:42 51.75608 -21.00560 39004 ft 509 kts 65°
2026-05-06 18:42 51.78267 -20.89966 39006 ft 509 kts 66°
2026-05-06 18:43 51.80983 -20.79391 39006 ft 509 kts 63°
2026-05-06 18:43 51.83747 -20.68874 39005 ft 509 kts 66°
2026-05-06 18:44 51.86256 -20.58258 39006 ft 508 kts 67°
2026-05-06 18:44 51.88795 -20.47579 39000 ft 508 kts 66°
2026-05-06 18:45 51.91382 -20.36923 39000 ft 508 kts 66°
2026-05-06 18:45 51.93984 -20.26266 38999 ft 508 kts 66°
2026-05-06 18:46 51.96582 -20.15581 38999 ft 509 kts 66°
2026-05-06 18:46 51.99164 -20.04900 38997 ft 508 kts 66°
2026-05-06 18:47 52.01717 -19.94191 38993 ft 508 kts 68°
2026-05-06 18:47 52.04118 -19.83464 38997 ft 507 kts 68°
2026-05-06 18:48 52.06496 -19.72655 38997 ft 507 kts 68°
2026-05-06 18:48 52.08881 -19.61869 38999 ft 507 kts 68°
2026-05-06 18:49 52.11272 -19.51063 38995 ft 507 kts 68°
2026-05-06 18:49 52.13653 -19.40261 38989 ft 506 kts 69°
2026-05-06 18:50 52.16021 -19.29453 38992 ft 507 kts 69°
2026-05-06 18:50 52.18382 -19.18622 38988 ft 507 kts 69°
2026-05-06 18:51 52.20714 -19.07863 38990 ft 507 kts 69°
2026-05-06 18:51 52.23049 -18.97036 38989 ft 505 kts 69°
2026-05-06 18:52 52.25369 -18.86221 38991 ft 504 kts 69°
2026-05-06 18:52 52.27676 -18.75408 38990 ft 504 kts 69°
2026-05-06 18:53 52.29973 -18.64583 38988 ft 504 kts 69°
2026-05-06 18:53 52.32260 -18.53749 38987 ft 504 kts 69°
2026-05-06 18:54 52.34535 -18.42917 38988 ft 503 kts 69°
2026-05-06 18:54 52.36800 -18.32067 38987 ft 504 kts 69°
2026-05-06 18:55 52.39057 -18.21204 38988 ft 504 kts 69°
2026-05-06 18:55 52.41299 -18.10348 38987 ft 503 kts 69°
2026-05-06 18:56 52.43528 -17.99497 38986 ft 502 kts 69°
2026-05-06 18:56 52.45731 -17.88711 38980 ft 502 kts 70°
2026-05-06 18:57 52.47939 -17.77846 38978 ft 502 kts 70°
2026-05-06 18:57 52.50138 -17.66963 38979 ft 502 kts 70°
2026-05-06 18:58 52.52318 -17.56110 38982 ft 499 kts 70°
2026-05-06 18:58 52.54482 -17.45280 38980 ft 499 kts 70°
2026-05-06 18:59 52.56636 -17.34437 38980 ft 499 kts 70°
2026-05-06 18:59 52.58782 -17.23583 38980 ft 499 kts 70°
2026-05-06 19:00 52.60913 -17.12739 38977 ft 497 kts 70°
2026-05-06 19:00 52.63031 -17.01910 38976 ft 497 kts 70°
2026-05-06 19:01 52.65136 -16.91071 38976 ft 497 kts 70°
2026-05-06 19:01 52.67231 -16.80228 38973 ft 497 kts 70°
2026-05-06 19:02 52.69303 -16.69440 38975 ft 496 kts 70°
2026-05-06 19:02 52.71374 -16.58600 38974 ft 495 kts 70°
2026-05-06 19:03 52.73447 -16.47686 38974 ft 495 kts 70°
2026-05-06 19:03 52.75497 -16.36834 38974 ft 495 kts 70°
2026-05-06 19:04 52.77524 -16.26036 38975 ft 495 kts 70°
2026-05-06 19:04 52.79552 -16.15174 38973 ft 494 kts 70°
2026-05-06 19:05 52.81567 -16.04316 38972 ft 494 kts 70°
2026-05-06 19:05 52.83574 -15.93438 38970 ft 494 kts 70°
2026-05-06 19:06 52.85574 -15.82536 38972 ft 494 kts 70°
2026-05-06 19:06 52.87560 -15.71644 38972 ft 494 kts 70°
2026-05-06 19:07 52.89539 -15.60729 38967 ft 494 kts 71°
2026-05-06 19:07 52.91504 -15.49821 38968 ft 494 kts 71°
2026-05-06 19:08 52.93460 -15.38900 38971 ft 494 kts 71°
2026-05-06 19:08 52.95406 -15.27969 38972 ft 494 kts 71°
2026-05-06 19:09 52.97339 -15.17048 38961 ft 493 kts 71°
2026-05-06 19:09 52.99260 -15.06113 38963 ft 493 kts 71°
2026-05-06 19:10 53.00279 -14.94823 38974 ft 497 kts 85°
2026-05-06 19:10 53.00430 -14.83445 38967 ft 495 kts 87°
2026-05-06 19:11 53.00437 -14.72032 38969 ft 494 kts 87°
2026-05-06 19:11 53.00426 -14.60626 38972 ft 494 kts 87°
2026-05-06 19:12 53.00421 -14.49209 38969 ft 494 kts 87°
2026-05-06 19:12 53.00414 -14.37785 38974 ft 494 kts 87°
2026-05-06 19:13 53.00397 -14.26446 38968 ft 494 kts 87°
2026-05-06 19:13 53.00369 -14.15027 38968 ft 495 kts 87°
2026-05-06 19:14 53.00331 -14.03594 38971 ft 495 kts 88°
2026-05-06 19:14 53.00363 -13.92176 38970 ft 494 kts 85°
2026-05-06 19:15 53.00640 -13.80776 38976 ft 494 kts 84°
2026-05-06 19:15 53.00929 -13.69372 38974 ft 494 kts 85°
2026-05-06 19:16 53.01169 -13.57965 38974 ft 494 kts 85°
2026-05-06 19:16 53.01375 -13.46549 38974 ft 494 kts 85°
2026-05-06 19:17 53.01566 -13.35141 38975 ft 494 kts 85°
2026-05-06 19:17 53.01747 -13.23723 38975 ft 495 kts 85°
2026-05-06 19:18 53.01919 -13.12302 38977 ft 495 kts 85°
2026-05-06 19:18 53.02080 -13.00891 38976 ft 494 kts 85°
2026-05-06 19:19 53.02205 -12.91423 38977 ft 493 kts 85°
2026-05-06 19:19 53.02346 -12.80035 38977 ft 493 kts 85°
2026-05-06 19:20 53.02476 -12.68645 38977 ft 493 kts 85°
2026-05-06 19:20 53.02595 -12.57262 38979 ft 493 kts 85°
2026-05-06 19:21 53.02703 -12.45877 38977 ft 493 kts 86°
2026-05-06 19:21 53.02800 -12.34493 38977 ft 493 kts 86°
2026-05-06 19:22 53.02886 -12.23179 38981 ft 493 kts 86°
2026-05-06 19:22 53.02961 -12.11857 38979 ft 493 kts 86°
2026-05-06 19:23 53.03015 -12.02473 38982 ft 493 kts 86°
2026-05-06 19:23 53.03071 -11.91089 38979 ft 493 kts 86°
2026-05-06 19:24 53.03116 -11.79706 38982 ft 493 kts 86°
2026-05-06 19:24 53.03150 -11.68320 38982 ft 493 kts 86°
2026-05-06 19:25 53.03173 -11.56926 38985 ft 493 kts 86°
2026-05-06 19:25 53.03186 -11.45531 38985 ft 493 kts 86°
2026-05-06 19:26 53.03188 -11.34144 38984 ft 493 kts 86°
2026-05-06 19:26 53.03178 -11.22749 38985 ft 493 kts 86°
2026-05-06 19:27 53.03157 -11.11369 38982 ft 493 kts 86°
2026-05-06 19:27 53.03126 -10.99970 38982 ft 493 kts 86°
2026-05-06 19:28 53.03084 -10.88593 38982 ft 493 kts 86°
2026-05-06 19:28 53.03031 -10.77210 38982 ft 493 kts 87°
2026-05-06 19:29 53.02967 -10.65820 38982 ft 493 kts 87°
2026-05-06 19:29 53.02893 -10.54516 38982 ft 493 kts 87°
2026-05-06 19:30 53.02807 -10.43125 38983 ft 493 kts 87°
2026-05-06 19:30 53.02711 -10.31727 38985 ft 493 kts 87°
2026-05-06 19:31 53.02603 -10.20343 38990 ft 493 kts 87°
2026-05-06 19:31 53.02421 -10.03258 38985 ft 493 kts 87°
2026-05-06 19:32 53.02287 -9.91874 38982 ft 493 kts 87°
2026-05-06 19:32 53.02142 -9.80490 38982 ft 493 kts 88°
2026-05-06 19:33 53.01985 -9.69103 38982 ft 493 kts 88°
2026-05-06 19:33 53.01987 -9.57728 38989 ft 490 kts 81°
2026-05-06 19:34 53.03179 -9.46631 38979 ft 488 kts 73°
2026-05-06 19:34 53.04687 -9.35690 38980 ft 489 kts 73°
2026-05-06 19:35 53.06254 -9.24605 38980 ft 490 kts 73°
2026-05-06 19:35 53.07773 -9.13630 38979 ft 490 kts 73°
2026-05-06 19:36 53.09278 -9.02565 38978 ft 490 kts 73°
2026-05-06 19:36 53.10768 -8.91483 38974 ft 490 kts 73°
2026-05-06 19:37 53.12246 -8.80409 38976 ft 490 kts 73°
2026-05-06 19:37 53.13716 -8.69319 38979 ft 490 kts 73°
2026-05-06 19:38 53.15176 -8.58227 38969 ft 491 kts 73°
2026-05-06 19:38 53.16626 -8.47117 38969 ft 491 kts 74°
2026-05-06 19:39 53.18065 -8.36007 38966 ft 491 kts 74°
2026-05-06 19:39 53.19495 -8.24878 38966 ft 491 kts 74°
2026-05-06 19:40 53.20915 -8.13743 38966 ft 491 kts 74°
2026-05-06 19:40 53.22325 -8.02595 38965 ft 491 kts 74°
2026-05-06 19:41 53.23726 -7.91429 38965 ft 492 kts 74°
2026-05-06 19:41 53.25117 -7.80253 38965 ft 492 kts 74°
2026-05-06 19:42 53.26498 -7.69069 38856 ft 490 kts 74°
2026-05-06 19:42 53.27182 -7.63490 38639 ft 491 kts 75°
2026-05-06 19:42 53.27866 -7.57898 38352 ft 491 kts 75°
2026-05-06 19:43 53.28546 -7.52314 38060 ft 491 kts 74°
2026-05-06 19:43 53.29226 -7.46724 37781 ft 490 kts 74°
2026-05-06 19:43 53.29893 -7.41215 37502 ft 489 kts 74°
2026-05-06 19:43 53.30566 -7.35643 37235 ft 488 kts 74°
2026-05-06 19:44 53.31236 -7.30076 36963 ft 488 kts 74°
2026-05-06 19:44 53.31900 -7.24524 36702 ft 487 kts 74°
2026-05-06 19:44 53.32561 -7.18974 36434 ft 486 kts 74°
2026-05-06 19:44 53.33247 -7.13188 36155 ft 485 kts 74°
2026-05-06 19:45 53.33871 -7.07905 35920 ft 484 kts 74°
2026-05-06 19:45 53.34521 -7.02377 35665 ft 483 kts 74°
2026-05-06 19:45 53.35167 -6.96863 35412 ft 482 kts 74°
2026-05-06 19:45 53.35808 -6.91366 35161 ft 481 kts 74°
2026-05-06 19:46 53.36447 -6.85865 34915 ft 480 kts 74°
2026-05-06 19:46 53.37080 -6.80386 34665 ft 479 kts 74°
2026-05-06 19:46 53.37710 -6.74899 34415 ft 478 kts 74°
2026-05-06 19:46 53.38332 -6.69445 34187 ft 477 kts 74°
2026-05-06 19:47 53.38952 -6.63983 33939 ft 476 kts 74°
2026-05-06 19:47 53.39567 -6.58543 33667 ft 475 kts 74°
2026-05-06 19:47 53.40180 -6.53106 33393 ft 476 kts 74°
2026-05-06 19:47 53.40793 -6.47649 33127 ft 477 kts 74°
2026-05-06 19:48 53.41404 -6.42180 32848 ft 478 kts 75°
2026-05-06 19:48 53.42006 -6.36756 32573 ft 479 kts 75°
2026-05-06 19:48 53.42613 -6.31253 32310 ft 481 kts 75°
2026-05-06 19:48 53.43252 -6.25752 32049 ft 481 kts 73°
2026-05-06 19:49 53.44004 -6.20288 31774 ft 481 kts 72°
2026-05-06 19:49 53.44817 -6.14831 31522 ft 482 kts 71°
2026-05-06 19:49 53.45646 -6.09366 31289 ft 484 kts 71°
2026-05-06 19:49 53.46469 -6.03880 31033 ft 486 kts 72°
2026-05-06 19:50 53.47278 -5.98375 30779 ft 487 kts 72°
2026-05-06 19:50 53.48074 -5.92844 30531 ft 488 kts 72°
2026-05-06 19:50 53.48863 -5.87284 30284 ft 490 kts 73°
2026-05-06 19:50 53.49645 -5.81710 30025 ft 491 kts 73°
2026-05-06 19:51 53.50425 -5.76111 29746 ft 492 kts 73°
2026-05-06 19:51 53.51201 -5.70515 29458 ft 491 kts 73°
2026-05-06 19:51 53.51973 -5.64938 29174 ft 489 kts 73°
2026-05-06 19:51 53.52741 -5.59373 28895 ft 488 kts 73°
2026-05-06 19:52 53.53464 -5.53819 28602 ft 488 kts 76°
2026-05-06 19:52 53.53828 -5.48137 28333 ft 489 kts 85°
2026-05-06 19:52 53.53835 -5.42499 28072 ft 488 kts 88°
2026-05-06 19:52 53.53748 -5.36805 27795 ft 486 kts 89°
2026-05-06 19:53 53.53614 -5.31145 27538 ft 484 kts 89°
2026-05-06 19:53 53.53459 -5.25500 27277 ft 483 kts 90°
2026-05-06 19:53 53.53296 -5.19875 27009 ft 481 kts 90°
2026-05-06 19:53 53.53135 -5.14258 26764 ft 480 kts 90°
2026-05-06 19:54 53.52970 -5.08661 26506 ft 479 kts 90°
2026-05-06 19:54 53.52791 -5.03075 26244 ft 478 kts 90°
2026-05-06 19:54 53.52605 -4.97501 25987 ft 477 kts 90°
2026-05-06 19:54 53.52417 -4.91932 25747 ft 475 kts 90°
2026-05-06 19:55 53.52230 -4.86406 25501 ft 474 kts 90°
2026-05-06 19:55 53.52047 -4.80886 25253 ft 472 kts 90°
2026-05-06 19:55 53.51864 -4.75384 25014 ft 471 kts 91°
2026-05-06 19:55 53.51677 -4.69881 24772 ft 469 kts 91°
2026-05-06 19:56 53.51488 -4.64419 24534 ft 468 kts 91°
2026-05-06 19:56 53.51300 -4.59033 24303 ft 467 kts 91°
2026-05-06 19:56 53.51108 -4.53594 24063 ft 466 kts 91°
2026-05-06 19:56 53.50914 -4.48166 23831 ft 465 kts 91°
2026-05-06 19:57 53.50719 -4.42755 23594 ft 464 kts 91°
2026-05-06 19:57 53.50521 -4.37360 23319 ft 462 kts 91°
2026-05-06 19:57 53.50321 -4.31967 23041 ft 461 kts 91°
2026-05-06 19:57 53.50119 -4.26612 22763 ft 459 kts 92°
2026-05-06 19:58 53.49916 -4.21269 22494 ft 458 kts 92°
2026-05-06 19:58 53.49711 -4.15947 22236 ft 456 kts 92°
2026-05-06 19:58 53.49505 -4.10642 21966 ft 454 kts 92°
2026-05-06 19:58 53.49297 -4.05353 21693 ft 453 kts 92°
2026-05-06 19:59 53.49080 -4.00090 21424 ft 452 kts 93°
2026-05-06 19:59 53.48516 -3.94938 21070 ft 443 kts 104°
2026-05-06 19:59 53.47593 -3.90055 20572 ft 434 kts 108°
2026-05-06 19:59 53.46618 -3.85319 20010 ft 426 kts 108°
2026-05-06 20:00 53.45650 -3.80659 19449 ft 419 kts 108°
2026-05-06 20:00 53.44698 -3.76072 18895 ft 414 kts 108°
2026-05-06 20:00 53.43755 -3.71533 18336 ft 411 kts 108°
2026-05-06 20:00 53.42816 -3.67026 17727 ft 409 kts 108°
2026-05-06 20:01 53.41908 -3.62516 17166 ft 407 kts 106°
2026-05-06 20:01 53.41375 -3.57867 16659 ft 411 kts 95°
2026-05-06 20:01 53.41129 -3.53024 16188 ft 421 kts 93°
2026-05-06 20:01 53.40918 -3.48127 15646 ft 421 kts 93°
2026-05-06 20:02 53.40705 -3.43252 15139 ft 418 kts 93°
2026-05-06 20:02 53.40490 -3.38438 14760 ft 407 kts 93°
2026-05-06 20:02 53.40289 -3.33901 14349 ft 373 kts 92°
2026-05-06 20:02 53.40108 -3.29752 13900 ft 343 kts 92°
2026-05-06 20:03 53.39933 -3.25920 13616 ft 321 kts 92°
2026-05-06 20:03 53.39766 -3.22197 13209 ft 320 kts 92°
2026-05-06 20:03 53.39599 -3.18495 12815 ft 317 kts 92°
2026-05-06 20:03 53.39527 -3.14820 12434 ft 313 kts 83°
2026-05-06 20:04 53.40083 -3.11348 12022 ft 307 kts 60°
2026-05-06 20:04 53.41119 -3.08235 11653 ft 305 kts 55°
2026-05-06 20:04 53.42210 -3.05193 11307 ft 303 kts 55°
2026-05-06 20:04 53.43285 -3.02167 10945 ft 301 kts 55°
2026-05-06 20:05 53.44338 -2.99172 10545 ft 297 kts 56°
2026-05-06 20:05 53.45033 -2.97181 10365 ft 298 kts 56°
2026-05-06 20:05 53.46408 -2.93228 9837 ft 295 kts 56°
2026-05-06 20:05 53.47435 -2.90258 9524 ft 294 kts 56°
2026-05-06 20:06 53.48459 -2.87297 9110 ft 292 kts 56°
2026-05-06 20:06 53.49475 -2.84350 8783 ft 290 kts 56°
2026-05-06 20:06 53.50157 -2.82370 8552 ft 288 kts 56°
2026-05-06 20:06 53.51159 -2.79455 8233 ft 288 kts 56°
2026-05-06 20:07 53.52140 -2.76601 7870 ft 286 kts 56°
2026-05-06 20:07 53.53142 -2.73680 7532 ft 283 kts 57°
2026-05-06 20:07 53.54121 -2.70824 7153 ft 281 kts 57°
2026-05-06 20:07 53.54912 -2.67861 7019 ft 286 kts 73°
2026-05-06 20:08 53.55036 -2.64496 7018 ft 287 kts 96°
2026-05-06 20:08 53.54421 -2.61379 7021 ft 285 kts 118°
2026-05-06 20:08 53.53164 -2.58828 7021 ft 283 kts 139°
2026-05-06 20:08 53.51559 -2.56916 7022 ft 283 kts 147°
2026-05-06 20:09 53.49881 -2.55186 7019 ft 283 kts 148°
2026-05-06 20:09 53.48091 -2.53819 7016 ft 283 kts 165°
2026-05-06 20:09 53.46156 -2.53353 7005 ft 279 kts 176°
2026-05-06 20:09 53.44237 -2.53200 6633 ft 274 kts 178°
2026-05-06 20:10 53.42331 -2.53094 6152 ft 274 kts 178°
2026-05-06 20:10 53.40432 -2.52995 5697 ft 271 kts 178°
2026-05-06 20:10 53.38560 -2.52912 5264 ft 268 kts 178°
2026-05-06 20:10 53.36710 -2.52867 4849 ft 264 kts 178°
2026-05-06 20:11 53.34887 -2.52846 4411 ft 260 kts 178°
2026-05-06 20:11 53.33085 -2.52847 4060 ft 257 kts 178°
2026-05-06 20:11 53.31293 -2.52874 3983 ft 259 kts 178°
2026-05-06 20:11 53.29551 -2.52911 3988 ft 245 kts 178°
2026-05-06 20:12 53.27916 -2.52941 3995 ft 225 kts 176°
2026-05-06 20:12 53.26485 -2.52294 3973 ft 207 kts 144°
2026-05-06 20:12 53.25545 -2.50596 3889 ft 194 kts 122°
2026-05-06 20:12 53.24896 -2.48678 3701 ft 187 kts 108°
2026-05-06 20:13 53.25048 -2.46599 3434 ft 187 kts 57°
2026-05-06 20:13 53.26010 -2.45152 3118 ft 187 kts 39°
2026-05-06 20:13 53.26968 -2.43696 3021 ft 185 kts 46°
2026-05-06 20:13 53.27821 -2.42101 2999 ft 184 kts 51°
2026-05-06 20:14 53.28629 -2.40413 2995 ft 203 kts 51°
2026-05-06 20:14 53.29674 -2.38322 2886 ft 241 kts 50°
2026-05-06 20:14 53.30713 -2.36301 2970 ft 216 kts 49°
2026-05-06 20:14 53.31658 -2.34539 3517 ft 197 kts 49°
2026-05-06 20:15 53.32678 -2.33102 3908 ft 190 kts 23°
2026-05-06 20:15 53.33957 -2.32907 3996 ft 188 kts 342°
2026-05-06 20:15 53.35113 -2.33912 3996 ft 190 kts 322°
2026-05-06 20:15 53.36178 -2.35257 3995 ft 193 kts 319°
2026-05-06 20:16 53.37214 -2.36640 3993 ft 193 kts 318°
2026-05-06 20:16 53.37982 -2.38416 3996 ft 188 kts 282°
2026-05-06 20:16 53.37903 -2.40521 3998 ft 182 kts 242°
2026-05-06 20:16 53.37241 -2.42346 3993 ft 185 kts 231°
2026-05-06 20:17 53.36462 -2.44076 3993 ft 187 kts 229°
2026-05-06 20:17 53.35667 -2.45800 3991 ft 187 kts 229°
2026-05-06 20:17 53.34865 -2.47526 3991 ft 187 kts 229°
2026-05-06 20:17 53.34060 -2.49242 3989 ft 188 kts 228°
2026-05-06 20:18 53.33257 -2.50964 3990 ft 187 kts 229°
2026-05-06 20:18 53.32453 -2.52677 3988 ft 187 kts 229°
2026-05-06 20:18 53.31646 -2.54390 3984 ft 187 kts 229°
2026-05-06 20:18 53.30840 -2.56102 3985 ft 187 kts 229°
2026-05-06 20:19 53.30048 -2.57821 4017 ft 182 kts 229°
2026-05-06 20:19 53.29274 -2.59403 3815 ft 175 kts 221°
2026-05-06 20:19 53.28188 -2.60228 3382 ft 176 kts 179°
2026-05-06 20:19 53.27017 -2.59729 3047 ft 174 kts 152°
2026-05-06 20:20 53.25943 -2.58802 2979 ft 177 kts 149°
2026-05-06 20:20 53.24861 -2.57797 2978 ft 178 kts 148°
2026-05-06 20:20 53.23795 -2.56752 2980 ft 178 kts 143°
2026-05-06 20:20 53.23119 -2.55082 2989 ft 177 kts 101°
2026-05-06 20:21 53.23139 -2.53066 2998 ft 175 kts 80°
2026-05-06 20:21 53.23558 -2.51136 2982 ft 179 kts 65°
2026-05-06 20:21 53.24273 -2.49412 2984 ft 181 kts 50°
2026-05-06 20:21 53.25075 -2.47779 2857 ft 182 kts 54°
2026-05-06 20:22 53.25850 -2.46119 2585 ft 181 kts 51°
2026-05-06 20:22 53.26653 -2.44505 2323 ft 180 kts 51°
2026-05-06 20:22 53.27427 -2.42918 2082 ft 169 kts 52°
2026-05-06 20:22 53.28135 -2.41455 1867 ft 156 kts 52°
2026-05-06 20:23 53.28801 -2.40091 1649 ft 146 kts 53°
2026-05-06 20:23 53.29414 -2.38826 1446 ft 135 kts 53°
2026-05-06 20:23 53.29984 -2.37649 1270 ft 126 kts 52°
2026-05-06 20:23 53.30532 -2.36521 1081 ft 124 kts 52°
2026-05-06 20:24 53.31077 -2.35403 906 ft 124 kts 52°
2026-05-06 20:24 53.31622 -2.34285 736 ft 124 kts 52°
2026-05-06 20:24 53.32168 -2.33162 552 ft 124 kts 52°
2026-05-06 20:24 53.32713 -2.32043 390 ft 124 kts 50°
2026-05-06 20:25 53.33268 -2.30910 258 ft 123 kts 50°
2026-05-06 20:25 53.33712 -2.30006 241 ft 62 kts 52°
2026-05-06 20:25 53.33916 -2.29589 237 ft 43 kts 47°
2026-05-06 20:25 53.34095 -2.29219 236 ft 40 kts 52°
2026-05-06 20:26 53.34265 -2.28863 238 ft 39 kts 50°
2026-05-06 20:26 53.34433 -2.28591 237 ft 31 kts 31°
2026-05-06 20:26 53.34627 -2.28460 240 ft 26 kts 20°
2026-05-06 20:26 53.34750 -2.28318 241 ft 11 kts 49°
2026-05-06 20:27 53.34764 -2.28291 236 ft 2 kts 48°
2026-05-06 20:27 53.34804 -2.28213 237 ft 13 kts 51°
2026-05-06 20:27 53.34877 -2.28062 239 ft 20 kts 52°
2026-05-06 20:27 53.34971 -2.27865 240 ft 24 kts 50°
2026-05-06 20:28 53.35082 -2.27637 239 ft 26 kts 51°
2026-05-06 20:28 53.35199 -2.27394 243 ft 26 kts 51°
2026-05-06 20:28 53.35276 -2.27240 246 ft 10 kts 45°
2026-05-06 20:28 53.35308 -2.27207 248 ft 0 kts 20°
2026-05-06 20:31 53.35309 -2.27206 248 ft 1 kts 20°
2026-05-06 20:31 53.35329 -2.27197 249 ft 4 kts 12°
2026-05-06 20:31 53.35419 -2.27253 253 ft 19 kts 322°
2026-05-06 20:31 53.35532 -2.27407 253 ft 24 kts 321°
2026-05-06 20:32 53.35677 -2.27596 253 ft 28 kts 328°
2026-05-06 20:32 53.35828 -2.27718 259 ft 21 kts 351°
2026-05-06 20:32 53.35969 -2.27741 261 ft 18 kts 336°
2026-05-06 20:32 53.36069 -2.27861 261 ft 20 kts 323°
2026-05-06 20:33 53.36188 -2.28022 261 ft 24 kts 316°
2026-05-06 20:33 53.36318 -2.28242 261 ft 29 kts 315°
2026-05-06 20:33 53.36410 -2.28449 261 ft 19 kts 298°
2026-05-06 20:33 53.36472 -2.28577 261 ft 11 kts 313°
2026-05-06 20:34 53.36527 -2.28669 261 ft 11 kts 315°
2026-05-06 20:34 53.36578 -2.28753 261 ft 8 kts 316°
2026-05-06 20:34 53.36623 -2.28776 261 ft 8 kts 14°
2026-05-06 20:34 53.36678 -2.28702 261 ft 11 kts 45°
2026-05-06 20:35 53.36695 -2.28674 261 ft 4 kts 44°
2026-05-06 20:35 53.36730 -2.28617 261 ft 10 kts 44°
2026-05-06 20:35 53.36751 -2.28565 261 ft 3 kts 87°
2026-05-06 20:35 53.36738 -2.28541 261 ft 4 kts 133°
2026-05-06 20:36 53.36720 -2.28508 261 ft 3 kts 134°
2026-05-06 20:36 53.36707 -2.28486 261 ft 3 kts 134°
2026-05-06 20:36 53.36703 -2.28478 261 ft 0 kts 134°